Location: Red Rock Farm
(35.2100°N, 97.2200°W)
Time: 04:57:11
(UTC-06:00)

ISS - All Passes

Search period start: 01 March 2015 00:00
Search period end: 11 March 2015 01:00
Orbit: 397 x 408 km, 51.6° (Epoch: 01 March)

Date Brightness Start Highest point End Pass type
(mag) Time Alt. Az. Time Alt. Az. Time Alt. Az.
01 Mar - 08:16:59 10° SSE 08:18:16 12° SE 08:19:40 10° ESE daylight
01 Mar - 09:51:17 10° WSW 09:54:24 48° NW 09:57:33 10° NE daylight
01 Mar - 16:21:22 10° NW 16:24:27 40° NE 16:27:32 10° ESE daylight
01 Mar - 17:58:41 10° W 18:00:40 15° SW 18:02:33 10° SSW daylight
02 Mar - 08:58:13 10° SW 09:01:26 74° SE 09:04:39 10° NE daylight
02 Mar - 10:36:29 10° WNW 10:38:13 14° NNW 10:39:54 10° N daylight
02 Mar - 15:28:45 10° NNW 15:31:20 22° NNE 15:33:57 10° E daylight
02 Mar - 17:04:53 10° WNW 17:07:49 31° SW 17:10:44 10° SSE daylight
03 Mar - 08:05:37 10° SSW 08:08:30 31° SE 08:11:26 10° ENE daylight
03 Mar - 09:42:23 10° W 09:44:58 22° NNW 09:47:34 10° NNE daylight
03 Mar - 14:36:23 10° N 14:38:06 14° NNE 14:39:52 10° ENE daylight
03 Mar - 16:11:39 10° NW 16:14:53 74° SW 16:18:06 10° SE daylight
04 Mar - 07:13:45 10° SSE 07:15:37 15° SE 07:17:34 10° E daylight
04 Mar - 08:48:45 10° WSW 08:51:49 40° NW 08:54:53 10° NE daylight
04 Mar - 15:18:41 10° NW 15:21:50 49° NE 15:25:00 10° ESE daylight
04 Mar - 16:56:33 10° WSW 16:57:59 12° SW 16:59:17 10° SSW daylight
05 Mar - 07:55:30 10° SW 07:58:44 88° NW 08:01:58 10° NE daylight
05 Mar - 09:34:12 10° NW 09:35:36 12° NNW 09:36:56 10° N daylight
05 Mar - 14:25:55 10° NNW 14:28:40 25° NE 14:31:27 10° E daylight
05 Mar - 16:02:18 10° WNW 16:05:04 25° SW 16:07:47 10° S daylight
06 Mar - 07:02:41 10° SSW 07:05:43 39° SE 07:08:45 10° ENE daylight
06 Mar - 08:39:50 10° W 08:42:15 19° NNW 08:44:39 10° NNE daylight
06 Mar - 13:33:23 10° N 13:35:23 15° NNE 13:37:26 10° ENE daylight
06 Mar - 15:08:53 10° NW 15:12:04 58° SW 15:15:15 10° SE daylight
07 Mar - 06:10:29 10° S 06:12:45 18° SE 06:15:04 10° E visible
07 Mar - 07:46:02 10° WSW 07:49:00 33° NW 07:51:59 10° NNE daylight
07 Mar - 14:15:47 10° NW 14:18:59 60° NE 14:22:11 10° ESE daylight
08 Mar - 07:52:36 10° SW 07:55:49 71° NW 07:59:03 10° NE daylight
08 Mar - 09:31:51 10° NW 09:32:46 11° NNW 09:33:36 10° N daylight
08 Mar - 14:22:53 10° NNW 14:25:47 29° NE 14:28:41 10° E daylight
08 Mar - 15:59:33 10° WNW 16:02:05 21° SW 16:04:35 10° S daylight
09 Mar - 06:59:35 10° SSW 07:02:42 48° SE 07:05:51 10° ENE visible
09 Mar - 08:37:06 10° WNW 08:39:20 17° NNW 08:41:31 10° NNE daylight
09 Mar - 13:30:13 10° NNW 13:32:26 17° NNE 13:34:43 10° ENE daylight
09 Mar - 15:05:56 10° WNW 15:09:02 46° SW 15:12:09 10° SSE daylight
10 Mar - 06:07:06 10° S 06:09:38 22° SE 06:12:14 10° ENE visible
10 Mar - 07:43:06 10° W 07:45:58 28° NW 07:48:50 10° NNE daylight
10 Mar - 12:38:01 10° N 12:38:59 11° NNE 12:40:00 10° NE daylight
10 Mar - 14:12:41 10° NW 14:15:54 74° NE 14:19:08 10° SE daylight
